Wind_Speed
8 9 10 11 12 13 13 14 14 15 16 16 17 17 18 18 18 19 19 20 19 19 19 20 19 18 18 18 17 17 17 16 15 15 14 13 11 10 9 7 6 5 4
10 11 11 13 13 14 15 15 16 17 18 19 19 20 21 21 21 22 21 21 21 21 21 21 21 20 20 19 19 18 17 16 16 15 14 13 12 11 10 9 7 5 4
11 12 13 14 15 15 16 17 18 19 20 20 21 21 22 22 23 23 23 23 24 23 23 22 22 22 22 21 20 19 18 17 17 16 15 15 13 12 11 9 8 6 4
12 13 14 14 15 16 17 17 18 19 20 21 21 22 22 23 23 24 24 25 26 26 26 24 24 23 23 23 22 20 19 18 17 16 16 15 14 13 12 11 9 7 5
12 13 14 15 15 16 17 17 18 18 19 19 20 21 22 22 23 24 25 26 26 27 27 26 25 25 24 23 23 22 20 18 18 17 16 16 15 13 13 12 10 8 6
12 12 14 14 14 15 15 16 16 17 17 17 18 18 20 21 22 23 24 24 25 27 28 28 27 27 26 24 23 23 21 19 18 17 17 16 15 14 13 12 11 9 7
12 13 13 12 12 13 13 14 14 15 15 15 16 17 18 19 20 21 23 23 24 25 27 28 29 28 28 26 25 24 23 20 19 18 17 16 15 14 13 12 11 10 8
12 12 12 11 11 11 12 12 13 13 14 14 15 16 17 18 19 20 21 22 23 24 25 26 28 28 28 28 27 25 24 21 19 18 17 16 15 14 14 13 12 10 10
11 11 11 11 11 11 11 12 12 13 13 14 15 16 16 17 18 19 20 22 23 23 24 25 27 27 28 28 27 26 25 23 21 19 17 16 16 15 14 13 12 12 11
10 10 10 10 10 10 11 11 12 13 14 15 15 16 17 17 18 18 19 21 22 23 24 25 27 27 27 28 27 27 26 24 22 20 19 17 16 16 15 14 13 13 12
9 9 8 8 9 10 10 11 12 13 14 15 16 17 17 18 18 18 19 19 20 21 23 24 26 27 27 27 28 27 26 24 23 22 21 19 17 16 16 14 13 14 13
9 8 7 7 8 9 10 11 13 14 15 16 17 18 18 18 19 19 19 19 19 20 21 23 24 26 26 27 28 28 27 24 23 22 21 20 19 17 16 16 15 14 14
8 7 7 7 8 9 11 12 13 15 16 17 18 19 19 19 19 19 19 18 19 19 19 20 22 24 25 26 27 27 27 26 24 23 22 21 20 18 17 16 16 15 15
7 6 7 8 9 10 12 14 15 16 17 18 19 19 20 20 20 19 18 17 17 17 18 19 20 22 23 25 25 27 28 26 25 24 23 22 20 19 18 17 15 16 16
7 7 8 9 10 11 13 15 16 17 18 18 19 20 20 20 20 19 17 16 16 16 16 17 19 21 21 23 25 26 27 27 25 25 23 23 22 20 19 17 16 16 16
7 8 8 9 10 12 14 15 16 17 18 19 20 20 20 20 20 19 17 16 15 14 14 15 16 19 20 21 23 25 27 28 26 25 24 24 22 21 19 19 18 18 17
7 7 8 9 10 12 14 16 17 18 19 19 20 20 20 20 20 19 17 16 14 13 13 14 15 17 20 20 22 25 28 27 26 25 25 25 24 22 20 20 19 19 18
7 7 8 9 11 13 14 16 17 18 19 19 19 20 20 20 20 19 17 15 13 12 11 12 14 16 19 20 21 24 27 28 26 25 25 25 24 23 22 21 20 20 19
7 7 8 9 11 13 15 17 18 18 19 19 19 20 20 20 19 18 16 14 12 10 10 10 12 14 17 18 20 23 25 27 27 26 25 25 25 25 24 23 22 21 20
7 7 8 9 11 13 15 17 18 18 19 19 19 19 20 19 19 17 15 13 12 10 8 8 9 12 15 17 19 21 23 26 26 25 26 25 25 25 24 24 23 22 21
6 7 8 9 10 13 15 17 18 18 18 18 18 19 19 19 18 17 15 13 11 9 8 6 7 9 12 15 17 19 21 23 24 25 25 25 25 25 24 24 24 23 22
6 7 8 9 10 13 15 17 18 17 17 18 18 18 18 19 18 16 16 13 11 9 7 5 3 6 10 12 14 16 20 22 23 24 25 25 25 25 25 25 24 24 23
6 7 7 8 10 12 14 16 17 17 16 17 17 18 18 18 17 16 16 13 10 8 6 3 1 3 7 10 13 16 18 19 21 23 24 24 24 25 25 25 25 25 24
6 7 7 8 9 12 14 15 16 16 16 17 17 17 17 17 17 16 15 13 11 9 6 4 1 2 5 7 11 14 16 18 19 21 22 23 23 24 25 25 25 25 25
7 7 7 8 9 11 13 14 15 15 15 16 17 17 17 17 16 15 14 12 10 8 6 4 2 1 4 6 9 12 14 16 18 20 21 22 23 24 24 24 25 25 26
7 7 7 8 9 10 12 13 14 14 15 16 16 16 16 16 16 15 13 11 10 8 7 5 4 2 4 6 8 10 12 13 15 18 20 21 21 23 24 24 24 25 26
Wind_Direction
298 301 301 301 301 302 299 295 291 287 283 280 277 274 272 271 269 268 266 262 260 259 259 257 257 257 256 255 257 258 259 261 261 263 265 268 270 272 275 281 288 304 328
299 300 299 300 301 301 299 296 292 287 284 280 277 274 271 270 269 267 266 262 260 259 259 258 256 255 255 255 256 257 258 259 260 261 263 266 267 268 270 274 276 287 305
302 303 303 301 302 302 301 299 296 291 287 284 280 277 273 271 270 267 264 262 260 258 258 257 256 255 254 255 256 256 256 257 259 260 260 261 263 264 265 266 269 272 280
304 305 305 304 304 304 303 301 297 294 290 287 283 279 275 272 269 267 266 264 261 257 255 254 255 255 254 254 254 255 255 255 257 258 258 257 258 260 260 259 259 262 261
307 308 308 307 307 306 305 303 300 297 295 291 288 283 278 274 272 270 268 265 261 257 254 253 253 253 253 253 253 253 253 253 255 256 255 254 256 257 256 252 250 251 248
311 311 310 310 310 309 308 308 307 305 302 299 296 291 285 279 276 272 270 267 263 259 255 252 252 253 252 252 253 252 251 252 254 253 252 252 252 251 249 247 245 240 238
314 314 316 315 315 315 316 317 316 315 312 308 304 300 294 288 283 278 273 270 265 262 257 253 252 252 251 250 252 251 250 250 250 249 249 249 248 244 243 241 239 234 230
318 319 320 320 321 322 324 324 324 324 322 318 314 310 303 296 288 282 277 272 267 262 257 254 252 250 250 249 251 250 249 247 246 245 245 245 243 240 237 236 233 230 225
322 323 323 324 325 328 332 332 332 331 329 325 322 317 311 305 298 290 282 275 269 263 259 254 252 249 249 247 247 247 246 244 242 241 242 242 239 237 235 233 229 228 223
324 325 326 327 329 333 337 338 339 336 333 331 327 323 319 313 307 299 290 281 274 266 261 256 252 250 248 246 244 243 243 241 240 238 239 240 237 234 233 230 228 226 222
324 323 323 327 332 336 341 343 342 338 336 334 331 327 323 318 311 304 297 289 280 271 264 259 254 251 248 244 241 240 239 238 236 235 235 236 235 232 230 228 226 224 220
322 321 321 327 335 339 343 344 341 339 337 335 334 330 325 321 315 308 300 292 285 276 266 259 253 249 246 242 239 236 235 233 233 233 232 232 232 230 229 226 223 222 218
316 319 325 330 336 341 343 343 342 339 338 337 335 331 328 323 319 313 304 296 287 279 269 261 253 247 243 239 237 234 232 232 232 230 228 227 227 227 227 224 221 220 216
312 319 328 333 339 343 343 342 341 339 338 338 335 331 329 327 323 317 309 301 293 282 271 262 254 245 240 236 234 231 229 229 230 226 224 223 223 224 223 221 219 216 214
312 322 330 334 339 341 341 342 342 340 339 338 336 334 332 330 327 323 316 306 298 285 273 263 254 243 237 232 231 227 224 225 225 222 221 221 221 219 219 219 217 214 213
313 320 328 333 337 340 341 343 342 340 340 339 338 337 335 332 329 325 320 313 303 289 274 264 254 243 237 232 229 223 220 221 221 219 218 218 217 216 217 218 217 215 213
311 317 325 330 335 340 343 343 342 341 341 340 340 340 338 336 333 328 322 317 309 293 276 264 252 243 236 231 226 220 218 217 217 217 217 216 215 215 216 216 216 213 213
309 314 322 329 336 341 343 344 343 343 343 342 342 342 342 340 337 332 325 321 314 300 281 266 252 242 234 228 223 218 215 215 214 214 213 213 214 215 215 215 214 213 213
309 314 322 328 336 342 344 345 344 344 344 344 345 345 345 343 341 339 330 325 318 305 289 272 252 241 231 226 221 215 212 211 211 212 211 211 212 214 215 214 211 211 212
309 314 319 327 336 342 344 345 345 344 345 346 347 347 348 347 346 345 339 331 325 316 298 278 252 236 227 222 218 214 211 208 208 208 209 209 208 210 212 211 209 209 211
309 311 317 326 335 340 342 345 345 345 346 347 349 349 350 350 349 349 346 340 334 327 315 290 254 232 220 216 213 210 206 204 205 205 207 208 207 207 208 208 207 208 211
308 311 316 324 333 339 342 345 346 346 347 349 350 351 352 352 352 352 352 350 345 339 329 317 259 217 210 210 208 205 201 202 203 205 208 209 209 208 209 207 207 209 211
306 308 312 319 330 338 342 344 347 348 349 351 352 352 353 355 355 355 355 357 357 355 353 348 302 200 199 204 202 200 197 201 203 206 208 211 213 211 210 209 210 210 213
304 304 307 314 326 335 341 345 349 351 352 353 353 354 354 356 357 358 358 0 2 7 13 21 36 180 190 191 196 198 199 202 205 208 212 213 212 211 211 213 212 212 215
300 300 303 309 322 332 340 345 350 353 355 355 354 355 356 358 359 359 1 3 5 11 16 18 29 167 180 182 189 193 198 201 205 210 211 211 212 213 214 214 216 217 219
293 294 298 306 318 329 338 344 348 352 355 356 357 357 359 1 2 3 4 7 8 11 16 19 28 96 160 168 179 187 194 200 205 207 210 211 213 215 217 218 220 222 223
Height
5880 5879 5878 5877 5876 5876 5875 5874 5873 5872 5871 5870 5869 5869 5868 5868 5867 5867 5867 5867 5867 5867 5867 5867 5868 5868 5869 5869 5870 5870 5871 5871 5872 5873 5873 5873 5874 5874 5874 5873 5873 5873 5872
5878 5878 5877 5876 5875 5874 5873 5872 5871 5869 5868 5868 5867 5866 5865 5865 5864 5864 5863 5863 5864 5864 5864 5864 5865 5865 5866 5867 5867 5868 5869 5869 5870 5871 5871 5872 5872 5872 5873 5873 5873 5872 5872
5877 5876 5875 5873 5872 5871 5870 5869 5868 5866 5865 5864 5863 5862 5862 5861 5860 5860 5859 5860 5860 5860 5861 5861 5862 5862 5863 5864 5864 5865 5866 5867 5868 5868 5869 5870 5870 5871 5871 5872 5872 5872 5872
5875 5874 5873 5871 5870 5868 5867 5866 5864 5863 5862 5860 5859 5858 5857 5857 5856 5856 5855 5855 5856 5856 5857 5857 5858 5859 5859 5860 5861 5862 5863 5864 5865 5866 5867 5868 5868 5869 5870 5870 5871 5871 5872
5873 5872 5870 5869 5867 5866 5864 5863 5861 5860 5858 5857 5855 5854 5853 5852 5852 5851 5851 5851 5851 5851 5852 5853 5854 5855 5856 5857 5858 5859 5860 5861 5863 5864 5864 5865 5866 5867 5868 5869 5870 5871 5871
5871 5869 5868 5866 5865 5863 5861 5860 5858 5856 5855 5853 5852 5850 5849 5848 5847 5847 5846 5846 5846 5847 5847 5848 5849 5850 5851 5853 5854 5856 5857 5859 5860 5861 5862 5863 5864 5865 5866 5867 5868 5869 5870
5869 5867 5866 5864 5862 5861 5859 5857 5855 5854 5852 5850 5848 5847 5845 5844 5843 5842 5842 5841 5841 5841 5842 5843 5844 5845 5847 5848 5850 5852 5853 5855 5857 5858 5860 5861 5862 5863 5864 5866 5867 5868 5869
5867 5865 5863 5862 5860 5859 5857 5855 5853 5851 5850 5848 5846 5844 5842 5840 5839 5838 5837 5836 5836 5836 5837 5837 5839 5840 5842 5843 5845 5847 5849 5851 5854 5855 5857 5858 5860 5861 5862 5864 5866 5867 5868
5865 5863 5861 5860 5858 5857 5855 5853 5851 5849 5847 5845 5843 5841 5839 5837 5835 5834 5832 5831 5831 5831 5831 5832 5833 5835 5836 5838 5840 5842 5845 5847 5850 5852 5854 5856 5857 5859 5860 5862 5864 5865 5867
5863 5862 5860 5858 5857 5855 5853 5851 5849 5847 5845 5843 5841 5838 5836 5833 5831 5829 5828 5826 5826 5826 5826 5826 5827 5829 5831 5833 5835 5837 5840 5843 5846 5848 5850 5852 5855 5856 5858 5860 5862 5864 5865
5862 5860 5859 5857 5856 5854 5852 5850 5848 5846 5843 5840 5838 5835 5833 5830 5827 5825 5823 5822 5821 5820 5820 5821 5822 5823 5825 5827 5830 5832 5835 5838 5842 5844 5847 5849 5852 5854 5856 5858 5860 5862 5864
5860 5859 5858 5856 5855 5852 5850 5848 5846 5844 5841 5838 5835 5832 5829 5827 5824 5821 5819 5818 5816 5815 5815 5815 5816 5817 5819 5821 5824 5827 5831 5834 5837 5840 5843 5846 5848 5851 5853 5855 5858 5860 5862
5859 5858 5857 5855 5853 5851 5849 5847 5844 5841 5839 5835 5832 5829 5826 5823 5820 5818 5815 5813 5811 5810 5810 5810 5810 5811 5813 5816 5819 5822 5826 5829 5833 5836 5839 5842 5845 5848 5850 5853 5855 5857 5860
5857 5856 5855 5853 5851 5849 5847 5845 5842 5839 5836 5833 5830 5826 5823 5820 5817 5814 5811 5809 5807 5805 5805 5805 5805 5806 5808 5810 5813 5817 5820 5825 5828 5832 5835 5838 5842 5845 5847 5850 5853 5855 5858
5855 5854 5853 5851 5849 5847 5845 5843 5840 5837 5834 5831 5827 5824 5820 5816 5813 5810 5807 5805 5803 5801 5800 5800 5800 5801 5803 5805 5808 5812 5815 5820 5824 5827 5831 5835 5838 5841 5845 5848 5851 5853 5856
5854 5852 5851 5849 5848 5846 5844 5841 5838 5835 5831 5828 5824 5821 5817 5813 5810 5806 5803 5801 5798 5797 5795 5795 5795 5796 5798 5801 5803 5807 5811 5815 5819 5823 5827 5831 5835 5838 5842 5845 5848 5851 5854
5852 5851 5849 5848 5846 5844 5842 5839 5836 5832 5829 5826 5822 5818 5814 5810 5806 5803 5800 5797 5794 5792 5791 5791 5791 5792 5794 5796 5799 5802 5806 5810 5815 5819 5823 5827 5831 5835 5839 5842 5845 5848 5852
5850 5849 5848 5847 5845 5843 5840 5837 5833 5830 5827 5823 5819 5816 5811 5807 5803 5799 5796 5793 5791 5789 5787 5786 5787 5787 5789 5792 5794 5798 5802 5806 5811 5815 5819 5824 5828 5832 5836 5839 5843 5846 5849
5849 5847 5846 5845 5843 5841 5838 5835 5832 5828 5825 5821 5817 5813 5809 5805 5801 5797 5793 5790 5788 5786 5784 5783 5783 5784 5785 5788 5790 5794 5798 5802 5807 5812 5816 5820 5824 5828 5832 5836 5840 5843 5846
5847 5846 5845 5843 5842 5840 5837 5834 5830 5827 5823 5819 5815 5812 5807 5803 5799 5795 5791 5788 5785 5783 5781 5780 5780 5780 5782 5784 5787 5790 5794 5799 5803 5808 5813 5817 5820 5825 5829 5833 5837 5840 5844
5845 5844 5843 5842 5840 5838 5836 5832 5828 5825 5821 5818 5814 5810 5806 5802 5797 5793 5790 5787 5784 5781 5779 5778 5778 5778 5780 5782 5785 5788 5792 5796 5800 5805 5809 5814 5818 5822 5826 5829 5833 5837 5841
5843 5842 5841 5840 5839 5837 5834 5831 5827 5823 5820 5816 5812 5809 5805 5800 5796 5793 5789 5786 5783 5780 5778 5777 5776 5777 5778 5780 5783 5786 5789 5794 5798 5802 5806 5810 5814 5818 5822 5826 5830 5834 5838
5841 5841 5840 5839 5838 5835 5833 5829 5826 5822 5819 5815 5811 5808 5804 5800 5796 5792 5789 5785 5782 5780 5778 5777 5776 5776 5777 5779 5781 5785 5788 5792 5795 5800 5803 5807 5811 5815 5819 5823 5827 5831 5835
5840 5839 5838 5837 5836 5834 5832 5828 5825 5821 5818 5814 5811 5807 5803 5799 5796 5792 5788 5785 5783 5780 5778 5777 5777 5777 5777 5779 5781 5784 5787 5790 5794 5797 5801 5804 5809 5812 5816 5820 5824 5828 5832
5838 5838 5837 5836 5834 5833 5830 5827 5824 5820 5817 5814 5810 5806 5803 5799 5795 5792 5788 5786 5783 5781 5779 5778 5777 5777 5778 5779 5781 5783 5786 5789 5792 5795 5799 5802 5806 5810 5813 5817 5821 5824 5828
5836 5836 5835 5834 5833 5831 5829 5826 5823 5820 5817 5813 5810 5806 5802 5799 5795 5792 5789 5786 5784 5782 5780 5779 5778 5778 5778 5779 5781 5783 5785 5787 5790 5793 5796 5800 5803 5807 5810 5814 5817 5820 5824